Regional Weather Roundup
Issued by NWS

Home | Current Version | Previous Version | Graphics & Text | Print | Product List | Glossary Off
Versions: 1 2 3 4 5 6 7 8 9 10 11 12 13 14 15 16 17 18 19 20 21 22 23 24 25 26 27 28 29 30 31 32 33 34 35 36 37 38 39 40 41 42 43 44 45 46 47 48 49 50

000
ASUS43 KDMX 250107
RWRIA

WEATHER ROUNDUP FOR IOWA
NATIONAL WEATHER SERVICE DES MOINES IA
700 PM CST SAT JAN 24 2015

NOTE: "FAIR" INDICATES FEW OR NO CLOUDS BELOW 12,000 FEET WITH NO
SIGNIFICANT WEATHER AND/OR OBSTRUCTIONS TO VISIBILITY.

* - THESE STATIONS ARE NOT NWS STATIONS...THUS NOT UNDER NWS
QUALITY CONTROL.  THEY ALSO DO NOT REPORT WEATHER SUCH
AS PRECIPITATION OR FOG.

IAZ001>003-012>014-020>022-031>034-043>046-250200-
   NORTHWEST IOWA

CITY           SKY/WX    TMP DP  RH WIND       PRES   REMARKS
CARROLL *      MIX PCPN  43  34  70 W10       29.61S
CHEROKEE *     CLOUDY    37  36  93 CALM      29.59F
DENISON *      CLOUDY    43  34  70 CALM      29.60F
LE MARS *      CLOUDY    39  34  81 S5        29.58F
ORANGE CITY *  CLOUDY    39  34  81 CALM      29.58S
SHELDON *      CLOUDY    37  37 100 SW6       29.56F WCI  33
SIOUX CITY     CLOUDY    45  37  73 SW7       29.59F
SPENCER        CLOUDY    37  32  82 CALM      29.58F
STORM LAKE *   CLOUDY    37  34  87 SW6       29.60F WCI  33
$$

IAZ055>058-069>071-079>083-090>094-250200-
   SOUTHWEST IOWA

CITY           SKY/WX    TMP DP  RH WIND       PRES   REMARKS
ATLANTIC *     CLOUDY    43  32  65 SW5       29.64R
AUDUBON *      LGT RAIN  45  34  65 SW6       29.64S
CLARINDA *     CLOUDY    46  28  49 SW7       29.68S
COUNCIL BLFS * CLOUDY    48  32  53 SW7       29.63F
CRESTON *      CLOUDY    45  30  57 SW7       29.65F
HARLAN  *      CLOUDY    43  32  65 SW8       29.66F
LAMONI         CLOUDY    47  29  49 SW12      29.66F
RED OAK *      CLOUDY    48  30  49 SW7       29.65F
SHENANDOAH *   MOCLDY    46  30  53 SW14      29.67F
$$

IAZ047>049-059>061-072>074-084-250200-
   CENTRAL IOWA

CITY           SKY/WX    TMP DP  RH WIND       PRES   REMARKS
AMES           CLOUDY    37  31  78 SW7       29.62S WCI  32
ANKENY *       CLOUDY    46  30  53 W7        29.63S
CHARITON *     CLOUDY    46  28  49 SW7       29.65F
DES MOINES     CLOUDY    46  29  51 SW8       29.63F
GRINNELL*      CLOUDY    39  32  75 S5        29.63F
KNOXVILLE *    CLOUDY    45  30  57 W10       29.63S
MARSHALLTOWN   CLOUDY    40  33  76 S5        29.61F
PELLA *        CLOUDY    45  32  61 SW6       29.65S
PERRY *          N/A     41  32  70 SW8       29.62F
$$

IAZ004>006-015-016-023>025-035-036-250200-
   NORTH CENTRAL IOWA

CITY           SKY/WX    TMP DP  RH WIND       PRES   REMARKS
ALGONA *       CLOUDY    36  34  93 SW8       29.59S WCI  29
CLARION *      CLOUDY    36  36 100 SW5       29.59F WCI  32
ESTHERVILLE    CLOUDY    34  32  92 SW9       29.56F WCI  27
FORT DODGE *   CLOUDY    37  30  75 CALM      29.60F
MASON CITY     CLOUDY    36  34  92 CALM      29.60R
FOREST CITY *  PTCLDY    34  32  93 CALM      29.59S
IOWA FALLS *   MOCLDY    37  34  87 SW3       29.62R
$$

IAZ007>011-017>019-026>030-037>042-050>054-066-250200-
   NORTHEAST IOWA

CITY           SKY/WX    TMP DP  RH WIND       PRES   REMARKS
CEDAR RAPIDS   CLOUDY    36  31  82 CALM      29.63S
CHARLES CITY * CLOUDY    36  36 100 SW6       29.60S WCI  31
CLINTON *      CLOUDY    36  30  80 SW6       29.68F WCI  31
DECORAH *      CLOUDY    37  34  87 CALM      29.60S
MONTICELLO *   PTCLDY    36  36 100 CALM      29.64S
OELWEIN *      CLOUDY    37  34  87 CALM      29.62F
WATERLOO       CLOUDY    36  33  89 S3        29.61F
$$

IAZ064-065-067-068-078-250200-
   EAST CENTRAL IOWA

CITY           SKY/WX    TMP DP  RH WIND       PRES   REMARKS
DAVENPORT      CLOUDY    38  31  76 S7        29.66S WCI  33
IOWA CITY      CLOUDY    37  31  78 CALM      29.66S
MT. PLEASANT * CLOUDY    39  32  75 S7        29.67F WCI  34
MUSCATINE *    CLEAR     39  32  75 CALM      29.67S
QUAD CITIES    CLOUDY    39  32  76 S3        29.65F
$$

IAZ062-063-075>077-085>089-095>099-250200-
   SOUTHEAST IOWA

CITY           SKY/WX    TMP DP  RH WIND       PRES   REMARKS
BURLINGTON     CLOUDY    42  33  70 S7        29.67F
FAIRFIELD *    MOCLDY    45  30  57 S6        29.66F
FORT MADISON * CLEAR     46  36  66 S8        29.69F
KEOKUK *       CLEAR     45  34  65 S7        29.68F
OSKALOOSA *      N/A     39  30  70 S6        29.65F WCI  35
CENTERVILLE *  CLEAR     45  28  53 SW6       29.67F
OTTUMWA        MOCLDY    42  30  62 S8        29.64F
WASHINGTON *   CLEAR     41  34  75 SW6       29.66S
$$

ABBREVIATIONS USED IN REMARKS
   TC - TEMPERATURES IN CELSIUS
  WCI - WIND CHILL INDEX
   HX - HEAT INDEX
  VSB - VISIBILITY
$$




USA.gov is the U.S. government's official web portal to all federal, state and local government web resources and services.